GW4740 Weather Reports


time (UTC)temp
F
wind
direction
speed
knots
gust
knots
rain 1hr
in
rain 24hr
in
rain mn
in
humidity
%
barometer
mb
20260507070022 48 309 4.3 8.7 0.00 0.00 0.00 63 1022.3
20260507064524 48 318 3.5 7.8 0.00 0.00 0.00 62 1022.1
20260507063013 48 323 2.6 6.1 0.00 0.00 0.00 63 1021.8
20260507061518 48 113 2.6 5.2 0.00 0.00 0.00 63 1021.1
20260507060022 47 45 2.6 7.8 0.00 0.00 0.00 63 1021.2
20260507054505 47 62 2.6 11.3 0.00 0.00 0.00 65 1021.1
20260507053011 46 40 7.0 16.5 0.00 0.00 0.00 66 1021.3
20260507051516 46 35 9.6 17.4 0.00 0.00 0.00 66 1021.4
20260507050020 46 25 7.8 14.8 0.00 0.00 0.00 66 1021.5
20260507044508 46 30 8.7 13.9 0.00 0.00 0.00 65 1021.5
20260507043009 46 52 6.1 13.0 0.00 0.00 0.00 66 1021.6
20260507041515 46 22 5.2 15.6 0.00 0.00 0.00 66 1021.1
20260507040017 46 37 9.6 16.5 0.00 0.00 0.00 65 1020.8
20260507034504 47 288 7.0 22.6 0.00 0.00 0.00 64 1020.9
20260507033006 47 11 14.8 26.1 0.00 0.00 0.00 64 1018.9
20260507031510 46 23 15.6 25.2 0.00 0.00 0.00 64 1018.7
20260507030014 47 32 20.0 27.8 0.00 0.00 0.00 64 1018.1
20260507024522 47 30 12.2 24.3 0.00 0.00 0.00 64 1018.1
20260507023005 48 18 13.9 23.5 0.00 0.00 0.00 64 1017.8
20260507021506 49 3 11.3 26.1 0.00 0.00 0.00 64 1017.3
20260507020012 51 11 20.0 29.5 0.00 0.00 0.00 61 1015.8
20260507014520 54 1 15.6 26.9 0.00 0.00 0.00 57 1015.8
20260507013022 60 1 20.0 29.5 0.00 0.00 0.00 45 1015.4
20260507011508 66 43 20.9 28.7 0.00 0.00 0.00 35 1014.0
20260507004514 74 309 4.3 8.7 0.00 0.00 0.00 17 1012.1
20260507003019 74 264 2.6 7.0 0.00 0.00 0.00 18 1011.9
20260506233019 75 239 7.0 10.4 0.00 0.00 0.00 17 1011.6
20260506231522 75 283 2.6 10.4 0.00 0.00 0.00 17 1011.6
20260506230028 75 233 2.6 10.4 0.00 0.00 0.00 18 1011.6
20260506224522 76 284 4.3 8.7 0.00 0.00 0.00 17 1011.5
20260506223016 73 276 3.5 10.4 0.00 0.00 0.00 18 1011.5
20260506221520 75 265 6.1 10.4 0.00 0.00 0.00 18 1011.6
20260506220033 75 288 7.0 13.9 0.00 0.00 0.00 18 1011.9
20260506214529 75 228 2.6 11.3 0.00 0.00 0.00 18 1011.9
20260506213014 75 307 6.1 10.4 0.00 0.00 0.00 17 1011.9
20260506211522 75 302 6.1 15.6 0.00 0.00 0.00 17 1012.2
20260506210022 75 228 7.8 14.8 0.00 0.00 0.00 17 1012.4
20260506204526 76 232 6.1 16.5 0.00 0.00 0.00 16 1012.7
20260506203014 75 293 4.3 15.6 0.00 0.00 0.00 17 1012.8
20260506201519 74 255 7.0 16.5 0.00 0.00 0.00 17 1013.0
20260506200004 74 237 7.0 14.8 0.00 0.00 0.00 17 1013.0
20260506194508 73 291 8.7 13.0 0.00 0.00 0.00 18 1013.0
20260506193012 73 236 8.7 16.5 0.00 0.00 0.00 17 1013.3
20260506191516 73 257 6.1 13.0 0.00 0.00 0.00 18 1013.6
20260506190005 72 248 7.8 13.0 0.00 0.00 0.00 17 1013.8
20260506184506 71 227 6.1 15.6 0.00 0.00 0.00 18 1014.0
20260506183008 71 274 7.8 18.2 0.00 0.00 0.00 16 1014.2
20260506181516 71 254 7.0 17.4 0.00 0.00 0.00 17 1014.3
20260506180021 71 226 7.0 15.6 0.00 0.00 0.00 19 1014.5
20260506174504 67 170 4.3 9.6 0.00 0.00 0.00 37 1014.6
20260506173008 67 27 0.9 5.2 0.00 0.00 0.00 37 1015.0
20260506171509 66 152 3.5 9.6 0.00 0.00 0.00 39 1015.0
20260506170017 65 85 1.7 6.1 0.00 0.00 0.00 40 1015.2
20260506164522 63 164 3.5 6.1 0.00 0.00 0.00 43 1015.2
20260506163006 60 103 3.5 9.6 0.00 0.00 0.00 50 1015.4
20260506161510 59 108 1.7 6.1 0.00 0.00 0.00 51 1015.5
20260506160026 57 79 0.9 6.1 0.00 0.00 0.00 52 1015.6
20260506154524 57 136 0.9 2.6 0.00 0.00 0.00 53 1015.9
20260506153024 55 119 2.6 4.3 0.00 0.00 0.00 56 1016.0
20260506151508 53 151 0.9 3.5 0.00 0.00 0.00 60 1016.0
20260506150012 52 124 3.5 5.2 0.00 0.00 0.00 61 1016.0
20260506144520 51 189 0.9 4.3 0.00 0.00 0.00 64 1015.9
20260506141527 47 166 1.7 4.3 0.00 0.00 0.00 70 1016.3
20260506134523 44 136 2.6 6.1 0.00 0.00 0.00 73 1016.2
20260506133021 44 67 4.3 6.1 0.00 0.00 0.00 74 1016.3
20260506131542 44 37 3.5 7.0 0.00 0.00 0.00 74 1016.3
20260506130037 43 47 3.5 7.0 0.00 0.00 0.00 75 1016.1
20260506124516 43 58 1.7 4.3 0.00 0.00 0.00 75 1015.8
20260506123022 43 79 1.7 5.2 0.00 0.00 0.00 76 1015.5
20260506121523 43 71 0.9 3.5 0.00 0.00 0.00 76 1015.2
20260506120027 43 76 0.9 1.7 0.00 0.00 0.00 76 1015.1
20260506114526 44 85 0.9 2.6 0.00 0.00 0.00 76 1014.9
20260506113023 44 67 0.0 1.7 0.00 0.00 0.00 76 1014.7
20260506111503 44 57 1.7 3.5 0.00 0.00 0.00 75 1014.7
20260506110005 45 44 0.0 3.5 0.00 0.00 0.00 75 1014.6
20260506104508 45 75 0.9 1.7 0.00 0.00 0.00 77 1014.6
20260506103031 45 166 0.0 1.7 0.00 0.00 0.00 77 1014.7
20260506101522 45 154 1.7 2.6 0.00 0.00 0.00 76 1014.9
20260506100003 45 13 0.0 2.6 0.00 0.00 0.00 76 1014.6
20260506094511 46 172 0.0 1.7 0.00 0.00 0.00 75 1014.6
20260506093013 46 164 1.7 4.3 0.00 0.00 0.00 75 1014.3
20260506091518 46 148 1.7 5.2 0.00 0.00 0.00 73 1014.1
20260506090024 47 145 2.6 5.2 0.00 0.00 0.00 72 1013.9
20260506084505 48 141 1.7 2.6 0.00 0.00 0.00 71 1013.8
20260506083010 49 1 1.7 4.3 0.00 0.00 0.00 70 1013.4
20260506081518 50 6 3.5 6.1 0.00 0.00 0.00 68 1013.3
20260506073010 53 360 1.7 5.2 0.00 0.00 0.00 62 1012.9
20260506071512 55 4 2.6 5.2 0.00 0.00 0.00 59 1012.7